• In Uzbekistan
  • List of Countries
  • For 7 days
  • Water Temperature
  • Satellite Maps
  • Weather Map
  • Weather Widgets
  • user-avatar
    Login

    Hourly Weather Santiago del Estero

    Today, 24 September, Sunday

    Time Temperature Precipitation Wind Pressure Humidity
    00:00 +20°C° 0 mm 3 mps 745 mmHg 53%
    01:00 +20°C° 0 mm 3 mps 744 mmHg 58%
    02:00 +19°C° 0 mm 3 mps 744 mmHg 62%
    03:00 +19°C° 0 mm 3 mps 744 mmHg 65%
    04:00 +18°C° 0 mm 3 mps 744 mmHg 68%
    05:00 +18°C° 0 mm 3 mps 743 mmHg 71%
    06:00 +19°C° 0 mm 3 mps 744 mmHg 68%
    07:00 +20°C° 0 mm 4 mps 744 mmHg 64%
    08:00 +22°C° 0 mm 5 mps 744 mmHg 60%
    09:00 +25°C° 0 mm 5 mps 744 mmHg 54%
    10:00 +27°C° 0 mm 5 mps 744 mmHg 48%
    11:00 +29°C° 0 mm 5 mps 743 mmHg 42%
    12:00 +30°C° 0 mm 5 mps 742 mmHg 38%
    13:00 +33°C° 0 mm 5 mps 741 mmHg 33%
    14:00 +34°C° 0 mm 5 mps 741 mmHg 29%
    15:00 +34°C° 0 mm 4 mps 740 mmHg 29%
    16:00 +34°C° 0 mm 4 mps 740 mmHg 28%
    17:00 +34°C° 0 mm 4 mps 740 mmHg 28%
    18:00 +31°C° 0 mm 3 mps 740 mmHg 32%
    19:00 +29°C° 0 mm 3 mps 741 mmHg 36%
    20:00 +27°C° 0 mm 2 mps 742 mmHg 40%
    21:00 +27°C° 0 mm 2 mps 742 mmHg 42%
    22:00 +26°C° 0 mm 2 mps 743 mmHg 45%
    23:00 +25°C° 0 mm 3 mps 743 mmHg 48%

    Tomorrow, 25 September, Monday

    Time Temperature Precipitation Wind Pressure Humidity
    00:00 +24°C° 0 mm 2 mps 743 mmHg 53%
    01:00 +24°C° 0 mm 2 mps 743 mmHg 58%
    02:00 +23°C° 0 mm 2 mps 743 mmHg 63%
    03:00 +21°C° 0 mm 2 mps 743 mmHg 66%
    04:00 +21°C° 0 mm 2 mps 743 mmHg 69%
    05:00 +20°C° 0 mm 2 mps 744 mmHg 73%
    06:00 +23°C° 0 mm 2 mps 744 mmHg 69%
    07:00 +24°C° 0 mm 3 mps 745 mmHg 66%
    08:00 +25°C° 0 mm 3 mps 746 mmHg 62%
    09:00 +27°C° 0 mm 3 mps 746 mmHg 55%
    10:00 +30°C° 0 mm 2 mps 746 mmHg 48%
    11:00 +32°C° 0 mm 2 mps 746 mmHg 40%
    12:00 +34°C° 0 mm 3 mps 745 mmHg 37%
    13:00 +36°C° 0 mm 3 mps 744 mmHg 34%
    14:00 +37°C° 0 mm 3 mps 743 mmHg 30%
    15:00 +36°C° 0 mm 4 mps 743 mmHg 31%
    16:00 +36°C° 0 mm 4 mps 742 mmHg 32%
    17:00 +35°C° 0 mm 5 mps 742 mmHg 33%
    18:00 +34°C° 0 mm 4 mps 742 mmHg 37%
    19:00 +32°C° 0 mm 4 mps 742 mmHg 41%
    20:00 +30°C° 0 mm 4 mps 743 mmHg 45%
    21:00 +29°C° 0 mm 4 mps 743 mmHg 49%
    22:00 +28°C° 0 mm 4 mps 743 mmHg 53%
    23:00 +28°C° 0 mm 4 mps 743 mmHg 57%

    Day after tomorrow, 26 September, Tuesday

    Time Temperature Precipitation Wind Pressure Humidity
    00:00 +27°C° 0 mm 3 mps 742 mmHg 60%
    01:00 +26°C° 0 mm 3 mps 742 mmHg 64%
    02:00 +26°C° 0 mm 2 mps 742 mmHg 67%
    03:00 +26°C° 0 mm 2 mps 741 mmHg 68%
    04:00 +26°C° 0 mm 3 mps 741 mmHg 68%
    05:00 +25°C° 0 mm 3 mps 741 mmHg 69%
    06:00 +26°C° 0 mm 3 mps 741 mmHg 67%
    07:00 +26°C° 0 mm 3 mps 742 mmHg 66%
    08:00 +26°C° 0 mm 4 mps 742 mmHg 64%
    09:00 +29°C° 0 mm 4 mps 742 mmHg 55%
    10:00 +32°C° 0 mm 4 mps 741 mmHg 46%
    11:00 +35°C° 0 mm 4 mps 741 mmHg 37%
    12:00 +36°C° 0 mm 4 mps 740 mmHg 33%
    13:00 +38°C° 0 mm 4 mps 739 mmHg 28%
    14:00 +40°C° 0 mm 5 mps 738 mmHg 24%
    15:00 +40°C° 0 mm 4 mps 737 mmHg 24%
    16:00 +40°C° 0 mm 4 mps 737 mmHg 24%
    17:00 +39°C° 0 mm 3 mps 737 mmHg 24%
    18:00 +37°C° 0 mm 4 mps 737 mmHg 27%
    19:00 +36°C° 0 mm 4 mps 738 mmHg 29%
    20:00 +34°C° 0 mm 5 mps 738 mmHg 32%
    21:00 +33°C° 0.3 mm 5 mps 739 mmHg 37%
    22:00 +32°C° 0.3 mm 5 mps 739 mmHg 41%
    23:00 +30°C° 0.3 mm 5 mps 740 mmHg 46%

    27 September, Wednesday

    Time Temperature Precipitation Wind Pressure Humidity
    00:00 +30°C° 0.1 mm 5 mps 740 mmHg 50%
    01:00 +29°C° 0.1 mm 5 mps 740 mmHg 54%
    02:00 +28°C° 0.1 mm 4 mps 739 mmHg 59%
    03:00 +27°C° 0.6 mm 6 mps 740 mmHg 66%
    04:00 +26°C° 0.6 mm 7 mps 740 mmHg 72%
    05:00 +24°C° 0.6 mm 8 mps 741 mmHg 79%
    06:00 +23°C° 1.2 mm 8 mps 741 mmHg 80%
    07:00 +23°C° 1.2 mm 7 mps 742 mmHg 81%
    08:00 +22°C° 1.2 mm 7 mps 743 mmHg 82%
    09:00 +22°C° 1.1 mm 6 mps 743 mmHg 82%
    10:00 +22°C° 1.1 mm 6 mps 744 mmHg 82%
    11:00 +22°C° 1.1 mm 6 mps 744 mmHg 82%
    12:00 +22°C° 0.5 mm 6 mps 744 mmHg 82%
    13:00 +22°C° 0.5 mm 6 mps 743 mmHg 81%
    14:00 +22°C° 0.5 mm 5 mps 743 mmHg 81%
    15:00 +21°C° 0.1 mm 5 mps 743 mmHg 81%
    16:00 +21°C° 0.1 mm 5 mps 743 mmHg 82%
    17:00 +20°C° 0.1 mm 5 mps 742 mmHg 82%
    18:00 +20°C° 0 mm 5 mps 743 mmHg 82%
    19:00 +19°C° 0 mm 5 mps 743 mmHg 83%
    20:00 +19°C° 0 mm 4 mps 744 mmHg 84%
    21:00 +19°C° 0 mm 4 mps 744 mmHg 85%
    22:00 +18°C° 0 mm 4 mps 744 mmHg 85%
    23:00 +18°C° 0 mm 4 mps 744 mmHg 86%

    28 September, Thursday

    Time Temperature Precipitation Wind Pressure Humidity
    00:00 +18°C° 0.3 mm 3 mps 744 mmHg 87%
    01:00 +18°C° 0.3 mm 3 mps 744 mmHg 87%
    02:00 +18°C° 0.3 mm 3 mps 743 mmHg 88%
    03:00 +18°C° 0.2 mm 3 mps 743 mmHg 88%
    04:00 +18°C° 0.2 mm 3 mps 743 mmHg 89%
    05:00 +18°C° 0.2 mm 3 mps 743 mmHg 89%
    06:00 +18°C° 0.5 mm 3 mps 744 mmHg 90%
    07:00 +18°C° 0.5 mm 3 mps 744 mmHg 90%
    08:00 +18°C° 0.5 mm 3 mps 744 mmHg 90%
    09:00 +18°C° 0.6 mm 3 mps 744 mmHg 90%
    10:00 +18°C° 0.6 mm 3 mps 744 mmHg 89%
    11:00 +19°C° 0.6 mm 3 mps 744 mmHg 88%
    12:00 +19°C° 0.1 mm 3 mps 743 mmHg 87%
    13:00 +19°C° 0.1 mm 3 mps 743 mmHg 86%
    14:00 +20°C° 0.1 mm 3 mps 742 mmHg 85%
    15:00 +20°C° 0 mm 3 mps 742 mmHg 84%
    16:00 +20°C° 0 mm 3 mps 742 mmHg 84%
    17:00 +20°C° 0 mm 3 mps 742 mmHg 83%
    18:00 +20°C° 0 mm 3 mps 742 mmHg 85%
    19:00 +19°C° 0 mm 3 mps 743 mmHg 87%
    20:00 +19°C° 0 mm 2 mps 743 mmHg 89%
    21:00 +19°C° 0.1 mm 2 mps 743 mmHg 90%
    22:00 +19°C° 0.1 mm 2 mps 743 mmHg 91%
    23:00 +19°C° 0.1 mm 2 mps 744 mmHg 92%

    29 September, Friday

    Time Temperature Precipitation Wind Pressure Humidity
    00:00 +19°C° 0.2 mm 2 mps 743 mmHg 92%
    01:00 +19°C° 0.2 mm 2 mps 743 mmHg 93%
    02:00 +19°C° 0.2 mm 2 mps 743 mmHg 94%
    03:00 +19°C° 0.1 mm 3 mps 743 mmHg 93%
    04:00 +19°C° 0.1 mm 3 mps 743 mmHg 93%
    05:00 +19°C° 0.1 mm 3 mps 743 mmHg 93%
    06:00 +19°C° 0.1 mm 3 mps 744 mmHg 91%
    07:00 +19°C° 0.1 mm 3 mps 744 mmHg 89%
    08:00 +20°C° 0.1 mm 3 mps 745 mmHg 87%
    09:00 +20°C° 0 mm 2 mps 745 mmHg 83%
    10:00 +21°C° 0 mm 2 mps 744 mmHg 79%
    11:00 +23°C° 0 mm 2 mps 744 mmHg 74%
    12:00 +25°C° 0 mm 2 mps 743 mmHg 68%
    13:00 +26°C° 0 mm 2 mps 743 mmHg 61%
    14:00 +28°C° 0 mm 1 mps 742 mmHg 54%
    15:00 +28°C° 0 mm 2 mps 741 mmHg 53%
    16:00 +28°C° 0 mm 2 mps 741 mmHg 51%
    17:00 +29°C° 0 mm 2 mps 740 mmHg 50%
    18:00 +27°C° 0 mm 2 mps 741 mmHg 55%
    19:00 +26°C° 0 mm 2 mps 741 mmHg 60%
    20:00 +24°C° 0 mm 2 mps 742 mmHg 65%
    21:00 +24°C° 0 mm 2 mps 742 mmHg 67%
    22:00 +24°C° 0 mm 2 mps 742 mmHg 69%
    23:00 +23°C° 0 mm 2 mps 742 mmHg 71%
    Show more